Погода в Мекнесе

Марокко     33°52′46″N   5°33′32″W
темп.,
°C
ветер,
м/с
пор.,
м/с
влажн.,
%
обл.,
%
осадки,
мм/ч
давл.,
гПа
погр.,
м
13 апреля, вт
вт1300:00+15вюв1176100 0.0 101911
03:00+15всв1175100 0.0 101711
06:00+13вюв2281100 0.0 101712
09:00+20св2257100 0.0 1018418
12:00+24ссв214499 0.0 1017936
15:00+26с2237100 0.0 10141339
18:00+23ссв3355100 0.0 101353
21:00+18ссз2267100 0.0 101511
14 апреля, ср
ср1400:00+19вюв3469100 0.1 101455
03:00+17вюв2275100 0.1 101217
06:00+16зсз1390100 0.5 101480
09:00+18св3573100 0.0 1014602
12:00+20с3262100 0.0 10121060
15:00+22ссз435488 0.0 10101482
18:00+18ссз3575100 1.9 1011433
21:00+16вюв3487100 10.3 1013107
15 апреля, чт
чт1500:00+15ююз1290100 14.3 101252
03:00+14сз2293100 1.6 101160
06:00+12зюз2594100 1.9 1012297
09:00+15з457973 0.1 1012767
12:00+17з677197 1.1 10111159
15:00+19зсз786193 2.9 10101623
18:00
21:00+13зюз369579 0.1 1014369
16 апреля, пт
пт1600:00+13зюз249099 0.3 1014453
03:00+13юз2490100 0.4 1014339
06:00+13юз1289100 0.5 1014178
09:00+14сз1278100 0.1 1015392
12:00+15в117295 0.2 1015716
15:00+19сз115932 0.1 10141202
18:00+16ссз12787 2.8 1015427
21:00+14ссз117924 0.1 101610
17 апреля, сб
сб1700:00+12з22940 0.2 101720
03:00+11юз22959 0.0 101612
06:00+10юз119429 0.0 101611
09:00+16сз216914 0.0 1017617
12:00+20сз335026 0.0 10161462
15:00+21ссз33445 0.0 10151750
18:00+19с45555 0.0 1016271
21:00+13с11895 0.0 101910